TimeEDT,TemperatureF,Dew PointF,Humidity,Sea Level PressureIn,VisibilityMPH,Wind Direction,Wind SpeedMPH,Gust SpeedMPH,PrecipitationIn,Events,Conditions,WindDirDegrees,DateUTC
12:53 AM,19.9,14.0,78,30.06,10.0,Calm,Calm,-,N/A,,Clear,0,2013-03-22 04:53:00
1:53 AM,19.0,14.0,81,30.06,10.0,Calm,Calm,-,N/A,,Clear,0,2013-03-22 05:53:00
2:53 AM,18.0,14.0,84,30.05,10.0,Calm,Calm,-,N/A,,Clear,0,2013-03-22 06:53:00
3:53 AM,17.1,14.0,88,30.06,10.0,Calm,Calm,-,N/A,,Clear,0,2013-03-22 07:53:00
4:53 AM,16.0,12.9,88,30.06,10.0,Calm,Calm,-,N/A,,Clear,0,2013-03-22 08:53:00
5:53 AM,16.0,12.9,88,30.07,10.0,Calm,Calm,-,N/A,,Clear,0,2013-03-22 09:53:00
6:53 AM,16.0,12.0,84,30.08,10.0,Calm,Calm,-,N/A,,Clear,0,2013-03-22 10:53:00
7:53 AM,14.0,12.0,92,30.09,7.0,Calm,Calm,-,N/A,,Clear,0,2013-03-22 11:53:00
8:53 AM,21.9,19.0,89,30.10,9.0,Calm,Calm,-,N/A,,Clear,0,2013-03-22 12:53:00
9:53 AM,28.0,19.0,69,30.12,10.0,Calm,Calm,-,N/A,,Clear,0,2013-03-22 13:53:00
10:53 AM,32.0,14.0,48,30.11,10.0,Variable,3.5,-,N/A,,Clear,0,2013-03-22 14:53:00
11:53 AM,36.0,14.0,41,30.09,10.0,East,4.6,-,N/A,,Clear,80,2013-03-22 15:53:00
12:53 PM,37.9,16.0,41,30.09,10.0,SSE,6.9,-,N/A,,Clear,150,2013-03-22 16:53:00
1:53 PM,39.9,15.1,36,30.06,10.0,NE,4.6,-,N/A,,Clear,50,2013-03-22 17:53:00
2:53 PM,41.0,16.0,36,30.04,10.0,Calm,Calm,-,N/A,,Clear,0,2013-03-22 18:53:00
3:53 PM,43.0,15.1,32,30.02,10.0,Variable,4.6,-,N/A,,Clear,0,2013-03-22 19:53:00
4:53 PM,44.1,15.1,31,30.01,10.0,Variable,4.6,-,N/A,,Partly Cloudy,0,2013-03-22 20:53:00
5:53 PM,43.0,15.1,32,30.01,10.0,Variable,3.5,-,N/A,,Overcast,0,2013-03-22 21:53:00
6:53 PM,41.0,17.1,38,30.02,10.0,SSW,6.9,-,N/A,,Overcast,200,2013-03-22 22:53:00
7:53 PM,39.9,17.1,40,30.03,10.0,South,4.6,-,N/A,,Overcast,190,2013-03-22 23:53:00
8:53 PM,39.9,18.0,41,30.04,10.0,Calm,Calm,-,N/A,,Overcast,0,2013-03-23 00:53:00
9:53 PM,39.0,18.0,43,30.04,10.0,Calm,Calm,-,N/A,,Overcast,0,2013-03-23 01:53:00
10:53 PM,39.0,19.9,46,30.04,10.0,Calm,Calm,-,N/A,,Overcast,0,2013-03-23 02:53:00
11:53 PM,37.9,19.0,47,30.04,10.0,Calm,Calm,-,N/A,,Overcast,0,2013-03-23 03:53:00